• Join FlightAware (Why Join?)
  • Login
  • US Flag GB Flag 
03:47 EDT


 

Airport Tracker/Info


-or-


 

Live Flight TrackerFlight Track Log ✈ N559LC ✈ 25-Apr-2013 ✈ KPTK - KHQZ

Flight Track Log - Related Links

Times and Time Zones

All times are in EDT time to prevent confusion due to time zone crossing. See the N559LC flight status page for this flight to view local times or setup timezone preferences in your user account.

Time Position Orientation Groundspeed Altitude Reporting Facility
EDT Latitude Longitude Course Direction KTS MPH feet Rate Location/Type
05:09 42.6636 -83.3897 107° East 189 217 2,200  Level Cleveland Center
05:10 42.6428 -83.2986 107° East 250 288 5,200 2,340 Climbing Cleveland Center
05:11 42.6369 -83.2786 112° Southeast 255 293 5,600 3,780 Climbing Cleveland Center
05:11 42.6028 -83.2319 135° Southeast 272 313 8,700 4,260 Climbing Cleveland Center
05:12 42.5778 -83.2308 178° South 277 319 9,900 3,000 Climbing Cleveland Center
05:12 42.5250 -83.2542 198° South 306 352 11,700 2,460 Climbing Cleveland Center
05:13 42.4978 -83.2669 199° South 345 397 12,400 1,020 Climbing Cleveland Center
05:14 42.4128 -83.3253 207° Southwest 350 403 13,200 2,280 Climbing Cleveland Center
05:15 42.3156 -83.3856 205° Southwest 350 403 17,000 3,420 Climbing Cleveland Center
05:16 42.2244 -83.4433 205° Southwest 355 409 20,100 3,120 Climbing Cleveland Center
05:17 42.1311 -83.5036 206° Southwest 368 423 23,300 2,760 Climbing Cleveland Center
05:18 42.0358 -83.5664 206° Southwest 373 429 25,700 2,460 Climbing Cleveland Center
05:19 41.9383 -83.6286 205° Southwest 378 435 28,300 2,100 Climbing Cleveland Center
05:20 41.8364 -83.6936 205° Southwest 390 449 30,000 1,680 Climbing Cleveland Center
05:21 41.7325 -83.7581 205° Southwest 403 464 31,700 1,980 Climbing Cleveland Center
05:22 41.6428 -83.8397 214° Southwest 403 464 34,000 1,680 Climbing Cleveland Center
05:23 41.5564 -83.9961 234° Southwest 352 405 36,200 1,200 Climbing Indianapolis Center
05:24 41.5247 -84.0628 238° Southwest 361 415 36,700 1,440 Climbing Chicago Center
05:25 41.4667 -84.1758 236° Southwest 369 425 38,400 1,380 Climbing Chicago Center
05:26 41.4106 -84.2853 236° Southwest 358 412 39,500 840 Climbing Chicago Center
05:27 41.3550 -84.3942 236° Southwest 358 412 40,200 600 Climbing Chicago Center
05:28 41.2975 -84.5056 236° Southwest 363 418 40,800 540 Climbing Chicago Center
05:29 41.2386 -84.6183 235° Southwest 369 425 41,400 540 Climbing Chicago Center
05:30 41.1786 -84.7333 235° Southwest 376 433 41,900 540 Climbing Chicago Center
05:31 41.1197 -84.8464 235° Southwest 372 428 42,500 540 Climbing Chicago Center
05:32 41.0617 -84.9581 235° Southwest 369 425 43,000 240 Climbing Chicago Center
05:33 41.0033 -85.0692 235° Southwest 367 422 43,000  Level Chicago Center
05:34 40.9425 -85.1822 235° Southwest 372 428 43,000  Level Chicago Center
05:35 40.8828 -85.2975 236° Southwest 377 434 43,000  Level Chicago Center
05:36 40.8211 -85.4111 234° Southwest 379 436 43,000  Level Chicago Center
05:37 40.7594 -85.5256 235° Southwest 381 438 43,000  Level Chicago Center
05:38 40.6978 -85.6411 235° Southwest 384 442 43,000  Level Chicago Center
05:39 40.6361 -85.7603 236° Southwest 386 444 43,000  Level Chicago Center
05:40 40.5722 -85.8764 234° Southwest 390 449 43,000  Level Chicago Center
05:41 40.5092 -85.9928 235° Southwest 390 449 43,000  Level Chicago Center
05:42 40.4461 -86.1094 235° Southwest 389 448 43,000  Level Chicago Center
05:43 40.3833 -86.2264 235° Southwest 391 450 43,000  Level Chicago Center
05:44 40.3200 -86.3417 234° Southwest 389 448 43,000  Level Chicago Center
05:45 40.2578 -86.4544 234° Southwest 384 442 43,000  Level Chicago Center
05:46 40.1950 -86.5692 234° Southwest 387 445 43,000  Level Chicago Center
05:47 40.1325 -86.6814 234° Southwest 383 441 43,000  Level Chicago Center
05:48 40.0919 -86.7550 234° Southwest 379 436 43,000  Level Indianapolis Center
05:49 40.0289 -86.8669 234° Southwest 380 437 43,000  Level Indianapolis Center
05:50 39.9678 -86.9769 234° Southwest 378 435 43,000  Level Indianapolis Center
05:51 39.9058 -87.0872 234° Southwest 376 433 43,000  Level Indianapolis Center
05:52 39.8431 -87.1978 234° Southwest 378 435 43,000  Level Indianapolis Center
05:53 39.7811 -87.3086 234° Southwest 378 435 43,000  Level Indianapolis Center
05:54 39.7175 -87.4203 234° Southwest 380 437 43,000  Level Indianapolis Center
05:55 39.6531 -87.5311 233° Southwest 385 443 43,000  Level Indianapolis Center
05:56 39.5900 -87.6442 234° Southwest 385 443 43,000  Level Indianapolis Center
05:57 39.5250 -87.7556 233° Southwest 386 444 43,000  Level Indianapolis Center
05:58 39.4617 -87.8672 234° Southwest 385 443 43,000  Level Indianapolis Center
05:59 39.3981 -87.9792 234° Southwest 383 441 43,000  Level Indianapolis Center
06:00 39.3319 -88.0922 233° Southwest 384 442 43,000  Level Indianapolis Center
06:01 39.2658 -88.2031 232° Southwest 387 445 43,000  Level Indianapolis Center
06:02 39.2025 -88.3133 233° Southwest 384 442 43,000  Level Indianapolis Center
06:03 39.1383 -88.4228 233° Southwest 383 441 43,000  Level Indianapolis Center
06:04 39.0747 -88.5322 233° Southwest 381 438 43,000  Level Indianapolis Center
06:05 39.0092 -88.6433 233° Southwest 387 445 43,000  Level Indianapolis Center
06:06 38.9439 -88.7542 233° Southwest 388 447 43,000  Level Indianapolis Center
06:07 38.8786 -88.8639 233° Southwest 386 444 43,000  Level Indianapolis Center
06:08 38.8136 -88.9719 232° Southwest 382 440 43,000  Level Indianapolis Center
06:09 38.7494 -89.0803 233° Southwest 381 438 43,000  Level Indianapolis Center
06:10 38.6842 -89.1897 233° Southwest 383 441 43,000  Level Indianapolis Center
06:11 38.6181 -89.2994 232° Southwest 386 444 43,000  Level Indianapolis Center
06:12 38.5444 -89.4225 233° Southwest 383 441 43,000  Level Kansas City Center
06:13 38.4736 -89.5400 232° Southwest 385 443 43,000  Level Kansas City Center
06:14 38.4083 -89.6478 232° Southwest 383 441 43,000  Level Kansas City Center
06:15 38.3431 -89.7542 232° Southwest 380 437 43,000  Level Kansas City Center
06:16 38.2775 -89.8606 232° Southwest 381 438 43,000  Level Kansas City Center
06:17 38.2117 -89.9672 232° Southwest 384 442 43,000  Level Kansas City Center
06:18 38.1469 -90.0719 232° Southwest 379 436 43,000  Level Kansas City Center
06:19 38.0822 -90.1750 231° Southwest 373 429 43,000  Level Kansas City Center
06:20 38.0192 -90.2783 232° Southwest 372 428 43,000  Level Kansas City Center
06:21 37.9539 -90.3822 231° Southwest 376 433 43,000  Level Kansas City Center
06:22 37.8969 -90.4742 232° Southwest 374 430 43,000  Level Kansas City Center
06:23 37.8322 -90.5781 232° Southwest 374 430 43,000  Level Kansas City Center
06:24 37.7672 -90.6831 232° Southwest 377 434 43,000  Level Kansas City Center
06:25 37.7017 -90.7833 230° Southwest 375 432 43,000  Level Kansas City Center
06:26 37.6364 -90.8864 231° Southwest 375 432 43,000  Level Kansas City Center
06:27 37.5681 -90.9961 232° Southwest 379 436 43,000  Level Kansas City Center
06:28 37.5008 -91.1003 231° Southwest 381 438 43,000  Level Kansas City Center
06:29 37.4356 -91.2044 232° Southwest 379 436 43,000  Level Kansas City Center
06:30 37.3708 -91.3061 231° Southwest 372 428 43,000  Level Kansas City Center
06:31 37.3053 -91.4092 231° Southwest 374 430 43,000  Level Kansas City Center
06:32 37.2397 -91.5117 231° Southwest 373 429 43,000  Level Kansas City Center
06:33 37.1736 -91.6139 231° Southwest 375 432 43,000  Level Kansas City Center
06:34 37.1081 -91.7161 231° Southwest 374 430 43,000  Level Kansas City Center
06:35 37.0417 -91.8178 231° Southwest 375 432 43,000  Level Kansas City Center
06:36 36.9761 -91.9203 231° Southwest 374 430 43,000  Level Kansas City Center
06:37 36.9094 -92.0211 230° Southwest 374 430 43,000  Level Kansas City Center
06:38 36.8431 -92.1256 232° Southwest 377 434 43,000  Level Kansas City Center
06:39 36.7758 -92.2286 231° Southwest 380 437 43,000  Level Kansas City Center
06:40 36.7106 -92.3286 231° Southwest 374 430 43,000  Level Kansas City Center
06:41 36.6444 -92.4281 230° Southwest 372 428 43,000  Level Kansas City Center
06:42 36.5647 -92.5478 230° Southwest 375 432 43,000  Level Memphis Center
06:43 36.4983 -92.6442 229° Southwest 375 432 43,000  Level Memphis Center
06:44 36.4383 -92.7353 231° Southwest 375 432 43,000  Level Memphis Center
06:45 36.3739 -92.8314 230° Southwest 375 432 43,000  Level Memphis Center
06:46 36.3094 -92.9222 229° Southwest 370 426 43,000  Level Memphis Center
06:47 36.2450 -93.0203 231° Southwest 376 433 43,000  Level Memphis Center
06:48 36.1781 -93.1211 231° Southwest 371 427 43,000  Level Memphis Center
06:49 36.1133 -93.2192 231° Southwest 377 434 43,000  Level Memphis Center
06:50 36.0464 -93.3194 230° Southwest 377 434 43,000  Level Memphis Center
06:51 35.9814 -93.4147 230° Southwest 377 434 43,000  Level Memphis Center
06:52 35.9164 -93.5122 231° Southwest 377 434 43,000  Level Memphis Center
06:53 35.8472 -93.6094 229° Southwest 377 434 43,000  Level Memphis Center
06:54 35.7822 -93.7067 231° Southwest 372 428 43,000  Level Memphis Center
06:55 35.7169 -93.8011 230° Southwest 372 428 43,000  Level Memphis Center
06:56 35.6497 -93.8981 230° Southwest 372 428 43,000  Level Memphis Center
06:57 35.5822 -93.9947 229° Southwest 377 434 43,000  Level Memphis Center
06:58 35.5189 -94.0889 230° Southwest 370 426 43,000  Level Memphis Center
07:00 35.3631 -94.2825 225° Southwest 355 409 43,000  Level Fort Worth Center
07:01 35.2817 -94.3669 220° Southwest 373 429 43,000  Level Fort Worth Center
07:02 35.2022 -94.4461 219° Southwest 378 435 43,000  Level Fort Worth Center
07:03 35.1186 -94.5303 219° Southwest 384 442 43,000  Level Fort Worth Center
07:04 35.0350 -94.6142 219° Southwest 390 449 43,000  Level Fort Worth Center
07:05 34.9536 -94.7006 221° Southwest 390 449 43,000  Level Fort Worth Center
07:06 34.8678 -94.7842 219° Southwest 382 440 43,000  Level Fort Worth Center
07:07 34.7881 -94.8625 219° Southwest 382 440 43,000 -300 Level Fort Worth Center
07:08 34.7083 -94.9431 220° Southwest 377 434 42,500 -1,260 Descending Fort Worth Center
07:09 34.6367 -95.0108 218° Southwest 382 440 40,500 -2,520 Descending Fort Worth Center
07:10 34.5300 -95.1147 219° Southwest 405 466 37,500 -2,700 Descending Fort Worth Center
07:11 34.4458 -95.1975 219° Southwest 411 473 35,100 -2,400 Descending Fort Worth Center
07:12 34.3597 -95.2828 219° Southwest 411 473 32,800 -2,400 Descending Fort Worth Center
07:13 34.2694 -95.3728 219° Southwest 416 479 30,300 -2,460 Descending Fort Worth Center
07:14 34.1831 -95.4553 218° Southwest 416 479 27,900 -2,400 Descending Fort Worth Center
07:15 34.0947 -95.5375 218° Southwest 416 479 25,500 -2,400 Descending Fort Worth Center
07:16 34.0125 -95.6194 220° Southwest 404 465 23,100 -2,400 Descending Fort Worth Center
07:17 33.9258 -95.7039 219° Southwest 397 457 20,700 -2,400 Descending Fort Worth Center
07:18 33.8436 -95.7806 218° Southwest 397 457 18,400 -2,280 Descending Fort Worth Center
07:19 33.7611 -95.8594 218° Southwest 392 451 16,200 -2,160 Descending Fort Worth Center
07:20 33.6847 -95.9331 219° Southwest 377 434 14,100 -2,040 Descending Fort Worth Center
07:21 33.6103 -96.0042 219° Southwest 357 411 12,200 -2,040 Descending Fort Worth Center
07:22 33.5381 -96.0728 218° Southwest 345 397 10,100 -1,140 Descending Fort Worth Center
07:23 33.4658 -96.1436 219° Southwest 345 397 10,000 -60 Descending Fort Worth Center
07:24 33.3953 -96.2092 218° Southwest 345 397 10,000  Level Fort Worth Center
07:25 33.3314 -96.2697 218° Southwest 319 367 10,000 -360 Level Fort Worth Center
07:26 33.2733 -96.3253 219° Southwest 281 323 9,300 -540 Descending Fort Worth Center
07:27 33.2047 -96.3608 203° Southwest 275 316 9,000 -1,140 Descending Fort Worth Center
07:28 33.1297 -96.3939 200° South 284 327 7,100 -1,860 Descending Fort Worth Center
07:29 33.0550 -96.4144 193° South 289 333 5,300 -1,680 Descending Fort Worth Center
07:30 32.9839 -96.4253 187° South 284 327 3,800 -1,200 Descending Fort Worth Center
07:31 32.9111 -96.4458 193° South 261 300 2,900 -720 Descending Fort Worth Center
07:32 32.8717 -96.4783 215° Southwest 216 249 2,400 -600 Descending Fort Worth Center
07:33 32.8281 -96.5161 216° Southwest 189 217 1,800 -600 Descending Fort Worth Center
07:34 32.7928 -96.5311 200° South 161 185 1,200 -600 Descending Fort Worth Center
07:35 32.7469 -96.5392 188° South 147 169 600 -180 Descending Fort Worth Center
07:38 32.7333 -96.5333 160° South 149 171 700  Climbing Dallas / Fort Worth TRACON
07:40 32.7333 -96.5167 90° East  Level FlightAware Approximate
07:47 32.7470 -96.5304 90° East  Level Estimated